Flag for Germany Weather past 2 weeks in Güstrow, Mecklenburg-Western Pomerania, Germany

Now
41 °F

Passing clouds.


Feels Like: 36 °F
Forecast: 37 / 47 °F
Wind: 7 mph from West

Location: Laage

Current Time: Mar 27, 2015 at 10:23:57 PM

Latest Report: Mar 27, 2015 at 9:20 PM


Visibility: N/A

Pressure: 30.01 "Hg

Humidity: 93%

Dew point: 39 °F

Location of GüstrowLocation

Historic Weather in Güstrow — Graph

°F

Güstrow temperature yesterday

Maximum temperature yesterday: 45 °F (at 2:20 AM)
Minimum temperature yesterday: 41 °F (at 2:03 PM)
Average temperature yesterday: 42 °F

Past Weeks' High & Low Weather Summary

 TemperatureHumidityPressure
High59 °F (Mar 17, 3:20 PM)100% (Mar 21, 6:20 AM)30.54 "Hg (Mar 21, 6:20 AM)
Low27 °F (Mar 20, 5:20 AM)23% (Mar 18, 3:20 PM)29.62 "Hg (Mar 26, 2:20 AM)
Average41 °F75%30.18 "Hg
* Reported Mar 12 8:20 PM — Mar 27 8:20 PM, Güstrow, Weather by CustomWeather, © 2015

Note: Actual official high and low records may vary slightly from our data, if they occured in-between our weather recording intervals... More about our weather records

Advertising

Güstrow weather history for previous 24 hours

 ConditionsComfort  
Time TempWeatherWind HumidityBarometerVisibility
8:20 PM
Fri, Mar 27
41 °FPassing clouds.6 mph93%29.98 "HgN/A
7:20 PM41 °FPassing clouds.6 mph93%29.95 "HgN/A
6:20 PM43 °FScattered showers. Broken clouds.8 mph87%29.92 "HgN/A
5:20 PM45 °FScattered showers. Broken clouds.8 mph87%29.92 "HgN/A
4:20 PM45 °FSprinkles. Partly sunny.12 mph81%29.89 "HgN/A
3:20 PM46 °FScattered showers. Partly sunny.8 mph76%29.86 "HgN/A
2:20 PM48 °FBroken clouds.7 mph66%29.86 "HgN/A
1:20 PM48 °FPartly sunny.8 mph66%29.83 "HgN/A
12:20 PM46 °FBroken clouds.9 mph66%29.83 "HgN/A
11:20 AM45 °FPartly sunny.8 mph81%29.83 "Hg4 mi
10:20 AM43 °FFog.5 mph93%29.83 "Hg3 mi
9:56 AM43 °FDrizzle. Fog.7 mph87%29.80 "Hg2 mi
9:20 AM43 °FPartly sunny.8 mph87%29.80 "Hg4 mi
8:58 AM43 °FPartly sunny.7 mph81%29.80 "Hg4 mi
8:20 AM41 °FBroken clouds.5 mph93%29.80 "Hg4 mi
7:20 AM39 °FFog.2 mph93%29.77 "Hg3 mi
6:48 AM39 °FDrizzle. Fog.3 mph93%29.77 "Hg3 mi
6:20 AM39 °FLight rain. Fog.3 mph93%29.77 "Hg3 mi
5:20 AM39 °FPassing clouds.3 mph93%29.77 "Hg4 mi
4:20 AM39 °FPassing clouds.3 mph87%29.74 "HgN/A
3:20 AM37 °FPartly cloudy.3 mph93%29.74 "HgN/A
2:20 AM37 °FPassing clouds.3 mph93%29.74 "HgN/A
1:20 AM37 °FPassing clouds.3 mph93%29.74 "HgN/A
12:20 AM37 °FPassing clouds.3 mph93%29.74 "HgN/A
11:20 PM
Thu, Mar 26
41 °FPassing clouds.3 mph87%29.74 "HgN/A
10:20 PM41 °FPassing clouds.2 mph87%29.74 "HgN/A
Weather by CustomWeather, © 2015

See weather overviewHow to use our weather pages